Location: Br�znic
(45.9167°N, 22.6500°E)
Time: 14:29:57
(UTC+00:00)

Okean-O - Pass Details

Date: 03 March 2021
Orbit: 638 x 640 km, 98.2° (Epoch: 11 April)

Event Time Altitude Azimuth Distance (km) Brightness Sun altitude
Rises 16:44:14 0° 150° (SSE) 2,934 5.8 -5.2°
Reaches altitude 10° 16:46:28 10° 145° (SE) 2,029 4.9 -5.6°
Maximum altitude 16:50:44 50° 71° (ENE) 824 2.8 -6.3°
Drops below altitude 10° 16:55:02 10° 357° (N) 2,044 5.3 -7.1°
Sets 16:57:17 0° 352° (N) 2,958 6.1 -7.5°
